     2              OBSERVATION DATA    GPS                 RINEX VERSION / TYPE
teqc 1997Jul24 19970902 21:02:30UTC                         PGM / RUN BY / DATE
                                                            COMMENT
BIT 2 OF LLI FLAGS DATA COLLECTED UNDER A-S CONDITION       COMMENT
BIT 2 OF LLI FLAGS DATA COLLECTED UNDER A-S CONDITION       COMMENT
Original Marker Name: 55445.BLAC                            COMMENT
Campaign Name: Salt. Tr. Crust. Monit. May-Jun 1986         COMMENT
4-Character Station Name: BLAC                              COMMENT
6-Character Antenna Code: TI4100                            COMMENT
Vertical Measurement Point: PAE                             COMMENT
Vertical Offset to Rinex Ref. Point: 0.0000                 COMMENT
Radial Measurement Point: RRP                               COMMENT
Radial Offset to Rinex Ref. Point: 0.0000                   COMMENT
Antenna Height from Field Measurement: 1.4350 m             COMMENT
Original XYZ: -2212206.6167 -3855956.2705 3025988.0397      COMMENT
New XYZ position is based on association with SCEC monument COMMENT
E1D0M3T8+0011. Position of that monument is believed to be  COMMENT
valid to within 1 m horizontally; vertical accuracy         COMMENT
should be no worse than 3-times this value.                 COMMENT
                                                            COMMENT
Revised Rinex header created by UCSD GPS archive for        COMMENT
GSAC on 12-Apr-1999 (1999:102) 12:57:50 GMT                 COMMENT
For assistance contact dagnew@ucsd.edu or hjohnson@ucsd.edu COMMENT
                                                            COMMENT
BLACK BUTTE NCMN 1982                                       MARKER NAME
05 NATIONAL GEODETIC SURVEY                                 OBSERVER / AGENCY
UT-28 TI 4100 1.0                                           REC # / TYPE / VERS
4053 TI 4100                                                ANT # / TYPE
 -2306307.0000 -4787914.0000  3515736.0000                  APPROX POSITION XYZ
        1.4350        0.0000        0.0000                  ANTENNA: DELTA H/E/N
     1     1     0                                          WAVELENGTH FACT L1/2
     4    P1    P2    L1    L2                              # / TYPES OF OBSERV
     6                                                      INTERVAL
  1986     6    11     4    40   59.000000                  TIME OF FIRST OBS
  1986     6    11     4    59   59.000000                  TIME OF LAST OBS
     0                                                      # OF SATELLITES
                                                            END OF HEADER
 86  6 11  4 40 59.0800000  0  3G12G13G 7
  21694268.422    21694271.447    46018730.609 9 -61649151.516 9
  22115199.589    22115202.977    73632154.556 9 -84344288.689 9
  24153921.762    24153924.742    15539377.305 9 -39390589.158 8
 86  6 11  4 41  5.0800000  0  3G12G13G 7
  21697010.499    21697014.419    46033142.941 9 -61637921.137 9
  22117005.885    22117008.360    73641644.413 8 -84336893.984 9
                  24153249.406                   -39393353.379 8
 86  6 11  4 41 11.0800000  0  3G12G13G 7
  21699756.512    21699760.546    46047574.486 9 -61626675.783 9
  22118811.977    22118815.078    73651135.951 8 -84329497.988 9
  24152578.716    24152582.089    15499422.663 9 -39396090.168 9
 86  6 11  4 41 17.0800000  0  3G12G13G 7
  21702506.717    21702510.415    46062025.217 8 -61615415.456 8
  22120618.098    22120621.424    73660629.230 9 -84322100.615 9
  24151917.302    24151920.686    15495948.116 9 -39398797.600 9
 86  6 11  4 41 23.0800000  0  3G12G13G 7
  21705259.792    21705264.269    46076495.069 9 -61604140.258 8
  22122425.045    22122427.609    73670124.283 8 -84314701.878 9
  24151261.655    24151265.647    15492508.383 9 -39401477.909 9
 86  6 11  4 41 29.0800000  0  3G12G13G 7
  21708017.953    21708021.229    46090984.051 9 -61592850.135 8
  22124232.174    22124235.193    73679621.103 9 -84307301.753 8
  24150613.474    24150617.001    15489098.963 9 -39404134.600 8
 86  6 11  4 41 35.0800000  0  3G12G13G 7
  21710778.403    21710782.509    46105492.114 9 -61581545.155 8
  22126040.215    22126042.844    73689119.697 9 -84299900.253 8
  24149969.435    24149972.418    15485715.584 9 -39406771.005 8
 86  6 11  4 41 41.0800000  0  3G12G13G 7
  21713542.746    21713546.480    46120019.353 9 -61570225.225 8
  22127846.865    22127850.972    73698620.020 9 -84292497.391 9
  24149329.814    24149332.747    15482355.504 9 -39409389.236 8
 86  6 11  4 41 47.0800000  0  3G12G13G 7
  21716311.196    21716314.464    46134565.660 9 -61558890.427 9
  22129655.705    22129659.722    73708122.033 9 -84285093.228 9
  24148694.564    24148696.271    15479016.587 9 -39411990.986 8
 86  6 11  4 41 53.0800000  0  3G12G13G 7
  21719082.722    21719085.740    46149131.047 8 -61547540.781 8
  22131464.143    22131467.981    73717625.765 9 -84277687.721 8
  24148062.881    24148066.098    15475697.984 9 -39414576.915 8
 86  6 11  4 41 59.0800000  0  3G12G13G 7
  21721857.503    21721861.444    46163715.517 9 -61536176.250 9
  22133272.897    22133276.903    73727131.141 9 -84270280.926 9
  24147435.945    24147438.600    15472401.898 9 -39417145.296 8
 86  6 11  4 42  5.0800000  0  3G12G13G 7
  21724636.985    21724640.246    46178318.977 9 -61524796.942 8
  22135081.736    22135086.565    73736638.191 9 -84262872.836 8
                  24146816.983                   -39419691.264 8
 86  6 11  4 42 11.0800000  0  3G12G13G 7
  21727418.942    21727422.132    46192941.384 9 -61513402.835 8
  22136891.176    22136894.986    73746147.007 8 -84255463.367 8
  24146199.166    24146202.632    15432722.265 8 -39422209.525 8
 86  6 11  4 42 17.0800000  0  3G12G13G 7
  21730205.564    21730208.411    46207582.793 9 -61501993.953 9
  22138701.168    22138704.415    73755657.565 9 -84248052.541 8
  24145592.320    24145594.696    15429528.174 8 -39424698.423 8
 86  6 11  4 42 23.0800000  0  3G12G13G 7
  21732995.048    21732999.333    46222243.061 9 -61490570.365 8
  22140511.534    22140514.725    73765169.884 8 -84240640.349 9
  24144990.705    24144993.720    15426369.220 9 -39427160.333 8
 86  6 11  4 42 29.0800000  0  3G12G13G 7
  21735789.140    21735791.801    46236922.215 9 -61479132.063 9
  22142322.080    22142324.587    73774683.876 9 -84233226.831 7
  24144396.097    24144398.494    15423239.757 9 -39429598.885 8
 86  6 11  4 42 35.0800000  0  3G12G13G 7
  21738585.678    21738589.348    46251620.237 8 -61467679.050 8
  22144133.008    22144135.294    73784199.509 9 -84225812.058 8
  24143805.317    24143806.687    15420136.290 9 -39432017.159 9
 86  6 11  4 42 41.0800000  0  3G12G13G 7
  21741386.209    21741390.093    46266337.101 8 -61456211.369 8
  22145944.112    22145946.809    73793716.802 9 -84218395.977 8
  24143218.962    24143220.336    15417056.127 9 -39434417.275 9
 86  6 11  4 42 47.0800000  0  3G12G13G 7
  21744190.789    21744194.387    46281072.774 8 -61444729.022 9
  22147756.164    22147758.349    73803235.743 9 -84210978.626 9
  24142637.147    24142639.368    15413997.030 9 -39436800.983 8
 86  6 11  4 42 53.0800000  0  3G12G13G 7
  21746999.054    21747002.044    46295827.181 9 -61433232.078 8
  22149567.364    22149570.927    73812756.376 9 -84203559.947 8
  24142058.039    24142060.651    15410958.350 9 -39439168.781 9
 86  6 11  4 42 59.0800000  0  3G12G13G 7
  21749808.607    21749812.541    46310600.387 9 -61421720.499 9
  22151378.822    22151381.916    73822278.775 9 -84196139.893 8
  24141483.475    24141487.314    15407942.275 9 -39441518.972 8
 86  6 11  4 43  5.0800000  0  3G12G13G 7
  21752623.590    21752627.459    46325392.457 8 -61410194.192 8
  22153191.425    22153193.875    73831802.857 9 -84188718.529 8
                  24140919.317                   -39443846.354 8
 86  6 11  4 43 11.0800000  0  3G12G13G 7
  21755442.021    21755445.905    46340203.321 9 -61398653.272 9
  22155003.773    22155006.896    73841328.636 9 -84181295.845 8
  24140352.863    24140357.027    15368544.800 9 -39446145.960 8
 86  6 11  4 43 17.0800000  0  3G12G13G 7
  21758264.137    21758267.942    46355032.883 8 -61387097.778 8
  22156817.453    22156820.089    73850856.180 8 -84173871.767 8
  24139798.740    24139802.524    15365631.339 9 -39448416.178 8
 86  6 11  4 43 23.0800000  0  3G12G13G 7
  21761089.652    21761093.299    46369881.137 9 -61375527.713 8
  22158631.272    22158634.344    73860385.446 9 -84166446.371 8
  24139250.476    24139255.112    15362751.891 9 -39450659.507 8
 86  6 11  4 43 29.0800000  0  3G12G13G 7
  21763918.142    21763922.620    46384748.058 8 -61363943.096 8
  22160443.155    22160447.934    73869916.378 8 -84159019.669 8
  24138707.957    24138711.502    15359902.943 9 -39452879.467 8
 86  6 11  4 43 35.0800000  0  3G12G13G 7
  21766751.191    21766755.468    46399633.601 8 -61352343.960 8
  22162258.791    22162261.789    73879449.074 9 -84151591.587 9
  24138171.380    24138175.047    15357079.947 9 -39455079.208 9
 86  6 11  4 43 41.0800000  0  3G12G13G 7
  21769587.530    21769592.530    46414537.756 8 -61340730.339 8
  22164072.821    22164075.715    73888983.421 9 -84144162.220 8
  24137638.209    24137641.922    15354280.230 9 -39457260.798 8
 86  6 11  4 43 47.0800000  0  3G12G13G 7
  21772427.354    21772431.703    46429460.564 8 -61329102.176 9
  22165886.808    22165889.605    73898519.451 8 -84136731.554 8
  24137109.921    24137114.593    15351501.647 9 -39459425.927 8
 86  6 11  4 43 53.0800000  0  3G12G13G 7
  21775270.311    21775274.203    46444401.940 8 -61317459.547 8
  22167701.865    22167705.642    73908057.108 8 -84129299.615 9
  24136586.183    24136589.596    15348743.526 9 -39461575.108 8
 86  6 11  4 43 59.0800000  0  3G12G13G 7
  21778117.612    21778120.802    46459361.819 9 -61305802.490 8
  22169517.490    22169520.563    73917596.458 9 -84121866.343 9
  24136065.911    24136069.818    15346008.420 9 -39463706.355 8
 86  6 11  4 44  5.0800000  0  3G12G13G 7
  21780968.640    21780971.529    46474340.171 9 -61294131.042 8
  22171333.674    22171335.891    73927137.482 9 -84114431.786 9
                  24135553.914                   -39465814.577 8
 86  6 11  4 44 11.0800000  0  3G12G13G 7
  21783820.991    21783824.610    46489337.043 9 -61282445.158 8
  22173149.145    22173152.053    73936680.168 9 -84106995.924 8
  24135043.659    24135045.698    15306881.623 9 -39467894.884 8
 86  6 11  4 44 17.0800000  0  3G12G13G 7
  21786679.188    21786682.106    46504352.364 9 -61270744.908 8
  22174965.114    22174968.044    73946224.456 9 -84099558.809 7
  24134543.016    24134545.102    15304249.449 9 -39469945.936 8
 86  6 11  4 44 23.0800000  0  3G12G13G 7
  21789539.788    21789543.143    46519386.105 9 -61259030.301 8
  22176781.759    22176785.025    73955770.436 9 -84092120.382 9
  24134047.718    24134050.569    15301652.200 9 -39471970.131 9
 86  6 11  4 44 29.0800000  0  3G12G13G 7
  21792403.609    21792406.741    46534438.360 9 -61247301.271 8
  22178598.619    22178601.570    73965318.084 8 -84084680.653 8
  24133559.932    24133562.869    15299084.391 9 -39473971.016 8
 86  6 11  4 44 35.0800000  0  3G12G13G 7
  21795271.829    21795274.568    46549509.090 9 -61235557.848 8
  22180416.355    22180418.640    73974867.485 9 -84077239.554 8
  24133075.011    24133078.027    15296542.381 9 -39475951.811 8
 86  6 11  4 44 41.0800000  0  3G12G13G 7
  21798142.897    21798146.631    46564598.201 9 -61223800.095 9
  22182233.529    22182235.836    73984418.551 9 -84069797.169 8
  24132596.265    24132599.477    15294023.563 9 -39477914.515 8
 86  6 11  4 44 47.0800000  0  3G12G13G 7
  21801018.630    21801021.684    46579705.627 9 -61212028.070 8
  22184051.655    22184053.980    73993971.256 9 -84062353.497 9
  24132120.516    24132123.811    15291525.765 9 -39479860.857 8
 86  6 11  4 44 53.0800000  0  3G12G13G 7
  21803896.215    21803900.750    46594831.368 9 -61200241.772 9
  22185869.717    22185872.796    74003525.629 9 -84054908.531 8
  24131649.454    24131652.008    15289048.438 9 -39481791.226 9
 86  6 11  4 44 59.0800000  0  3G12G13G 7
  21806778.530    21806782.414    46609975.450 9 -61188441.191 8
  22187687.814    22187691.083    74013081.705 9 -84047462.227 8
  24131182.009    24131184.627    15286594.370 9 -39483703.485 9
 86  6 11  4 45  5.0800000  0  3G12G13G 7
  21809662.906    21809667.011    46625137.838 9 -61176626.334 8
  22189506.398    22189509.961    74022639.497 9 -84040014.599 9
                  24130723.760                   -39485592.567 8
 86  6 11  4 45 11.0800000  0  3G12G13G 7
  21812552.089    21812555.701    46640318.539 8 -61164797.223 9
  22191326.280    22191328.430    74032198.941 8 -84032565.674 8
  24130265.426    24130268.270    15247748.901 9 -39487453.446 9
 86  6 11  4 45 17.0800000  0  3G12G13G 7
  21815445.057    21815447.660    46655517.502 8 -61152953.869 9
  22193145.680    22193147.003    74041760.030 9 -84025115.473 9
  24129818.192    24129822.138    15245398.400 8 -39489285.008 8
 86  6 11  4 45 23.0800000  0  3G12G13G 7
  21818340.107    21818344.556    46670734.671 8 -61141096.337 8
  22194965.720    22194967.776    74051322.852 9 -84017663.921 9
  24129377.726    24129380.113    15243082.213 9 -39491089.821 8
 86  6 11  4 45 29.0800000  0  3G12G13G 7
  21821239.915    21821244.443    46685969.994 9 -61129224.652 8
  22196785.330    22196787.598    74060887.227 9 -84010211.147 8
  24128942.591    24128946.437    15240795.619 9 -39492871.563 9
 86  6 11  4 45 35.0800000  0  3G12G13G 7
  21824141.304    21824146.290    46701223.499 9 -61117338.805 9
  22198605.864    22198608.511    74070453.267 9 -84002757.093 9
  24128512.092    24128515.880    15238534.780 9 -39494633.254 8
 86  6 11  4 45 41.0800000  0  3G12G13G 7
  21827048.438    21827052.243    46716495.086 9 -61105438.881 9
  22200426.866    22200428.221    74080020.917 9 -83995301.780 9
  24128086.136    24128089.534    15236297.014 9 -39496376.975 9
 86  6 11  4 45 47.0800000  0  3G12G13G 7
  21829958.012    21829961.810    46731784.723 8 -61093524.868 9
  22202246.670    22202250.676    74089590.100 9 -83987845.264 9
  24127664.251    24127667.968    15234080.337 9 -39498104.258 8
 86  6 11  4 45 53.0800000  0  3G12G13G 7
  21832870.963    21832874.196    46747092.411 9 -61081596.795 9
  22204067.811    22204071.560    74099160.797 9 -83980387.577 9
  24127246.880    24127249.971    15231884.193 9 -39499815.538 9
 86  6 11  4 45 59.0800000  0  3G12G13G 7
  21835786.561    21835790.760    46762418.111 8 -61069654.696 9
  22205889.969    22205892.086    74108733.101 9 -83972928.636 9
  24126833.523    24126835.917    15229711.397 9 -39501508.616 9
 86  6 11  4 46  5.0800000  0  3G12G13G 7
  21838706.903    21838711.352    46777761.778 9 -61057698.584 9
  22207711.082    22207714.433    74118306.915 9 -83965468.508 9
                  24126429.500                   -39503178.251 8
 86  6 11  4 46 11.0800000  0  3G12G13G 7
  21841630.199    21841633.124    46793123.348 9 -61045728.533 8
  22209533.314    22209536.619    74127882.310 9 -83958007.152 9
  24126025.802    24126027.329    15191148.273 9 -39504819.625 9
 86  6 11  4 46 17.0800000  0  3G12G13G 7
  21844556.987    21844560.105    46808502.903 9 -61033744.455 8
  22211356.642    22211359.156    74137459.383 9 -83950544.500 8
  24125632.696    24125634.370    15189079.404 9 -39506431.714 8
 86  6 11  4 46 23.0800000  0  3G12G13G 7
  21847486.665    21847490.263    46823900.415 8 -61021746.401 9
  22213179.247    22213183.174    74147038.050 9 -83943080.597 8
  24125244.380    24125246.784    15187044.712 9 -39508017.182 8
 86  6 11  4 46 29.0800000  0  3G12G13G 7
  21850420.150    21850424.155    46839315.889 9 -61009734.350 9
  22215001.150    22215004.330    74156618.386 9 -83935615.395 8
  24124863.584    24124865.290    15185039.615 9 -39509579.578 8
 86  6 11  4 46 35.0800000  0  3G12G13G 7
  21853357.491    21853359.987    46854749.238 8 -60997708.353 9
  22216825.343    22216828.280    74166200.334 9 -83928148.941 9
  24124486.508    24124488.404    15183060.005 9 -39511122.133 8
 86  6 11  4 46 41.0800000  0  3G12G13G 7
  21856297.336    21856300.948    46870200.460 9 -60985668.446 8
  22218649.046    22218652.122    74175783.886 9 -83920681.238 8
  24124114.662    24124116.351    15181103.451 9 -39512646.717 8
 86  6 11  4 46 47.0800000  0  3G12G13G 7
  21859240.887    21859245.114    46885669.548 9 -60973614.600 8
  22220472.989    22220476.104    74185368.898 9 -83913212.392 9
  24123745.564    24123748.412    15179167.922 9 -39514154.917 9
 86  6 11  4 46 53.0800000  0  3G12G13G 7
  21862187.893    21862191.842    46901156.463 9 -60961546.869 8
  22222297.536    22222300.870    74194955.524 9 -83905742.296 8
  24123381.320    24123383.352    15177252.992 9 -39515647.056 8
 86  6 11  4 46 59.0800000  0  3G12G13G 7
  21865137.876    21865142.648    46916661.248 9 -60949465.231 8
  22224121.375    22224123.954    74204543.840 9 -83898270.867 9
  24123021.190    24123023.125    15175361.686 9 -39517120.802 9
 86  6 11  4 47  5.0800000  0  3G12G13G 7
  21868092.210    21868094.906    46932183.818 9 -60937369.717 8
  22225947.049    22225949.674    74214133.787 8 -83890798.177 9
                  24122669.795                   -39518570.779 8
 86  6 11  4 47 11.0800000  0  3G12G13G 7
  21871049.290    21871053.281    46947724.217 8 -60925260.314 8
  22227772.319    22227774.729    74223725.466 9 -83883324.138 9
  24122320.318    24122321.227    15137077.633 9 -39519992.258 9
 86  6 11  4 47 17.0800000  0  3G12G13G 7
  21874010.026    21874014.011    46963282.454 9 -60913137.008 8
  22229596.805    22229599.906    74233318.848 9 -83875848.772 8
  24121979.820    24121982.911    15135290.781 9 -39521384.608 9
 86  6 11  4 47 23.0800000  0  3G12G13G 7
  21876973.897    21876977.373    46978858.529 8 -60900999.809 8
  22231422.780    22231425.759    74242913.985 9 -83868372.041 9
  24121646.366    24121649.149    15133538.073 9 -39522750.345 9
 86  6 11  4 47 29.0800000  0  3G12G13G 7
  21879940.614    21879945.671    46994452.350 9 -60888848.782 8
  22233249.656    22233253.315    74252510.742 9 -83860894.037 9
  24121317.917    24121321.401    15131814.973 9 -39524093.015 9
 86  6 11  4 47 35.0800000  0  3G12G13G 7
  21882912.326    21882915.022    47010063.898 8 -60876683.945 8
  22235076.099    22235079.665    74262109.153 8 -83853414.758 9
  24120995.065    24120997.709    15130117.505 9 -39525415.716 9
 86  6 11  4 47 41.0800000  0  3G12G13G 7
  21885885.604    21885890.597    47025693.151 9 -60864505.308 8
  22236902.592    22236906.291    74271709.217 9 -83845934.190 8
  24120675.616    24120679.405    15128443.155 8 -39526720.398 9
 86  6 11  4 47 47.0800000  0  3G12G13G 7
  21888863.518    21888867.675    47041339.925 9 -60852313.006 8
  22238729.772    22238732.433    74281310.880 9 -83838452.361 8
  24120361.733    24120364.545    15126789.757 9 -39528008.753 8
 86  6 11  4 47 53.0800000  0  3G12G13G 7
  21891843.658    21891849.331    47057004.281 9 -60840107.025 8
  22240557.178    22240560.325    74290914.063 9 -83830969.366 9
  24120051.331    24120054.139    15125157.032 9 -39529280.999 8
 86  6 11  4 47 59.0800000  0  3G12G13G 7
  21894828.856    21894833.148    47072686.155 9 -60827887.391 9
  22242384.780    22242388.031    74300518.769 9 -83823485.173 9
  24119745.193    24119747.912    15123548.092 9 -39530534.721 8
 86  6 11  4 48  5.0800000  0  3G12G13G 7
  21897816.859    21897820.177    47088385.578 9 -60815654.072 9
  22244213.226    22244216.474    74310125.098 9 -83815999.713 8
                  24119447.991                   -39531764.483 8
 86  6 11  4 48 11.0800000  0  3G12G13G 7
  21900807.465    21900810.834    47104102.498 8 -60803407.116 8
  22246041.065    22246044.348    74319732.966 9 -83808513.058 9
  24119151.955    24119153.830    15085540.810 9 -39532965.706 8
 86  6 11  4 48 17.0800000  0  3G12G13G 7
  21903801.070    21903805.090    47119836.874 8 -60791146.568 8
  22247871.032    22247872.459    74329342.456 9 -83801025.146 8
  24118865.149    24118867.703    15084036.622 9 -39534137.819 9
 86  6 11  4 48 23.0800000  0  3G12G13G 7
  21906799.447    21906802.702    47135588.630 8 -60778872.475 9
  22249698.677    22249701.324    74338953.509 9 -83793536.016 9
  24118585.347    24118588.080    15082565.741 9 -39535283.553 9
 86  6 11  4 48 29.0800000  0  3G12G13G 7
  21909799.748    21909803.224    47151357.779 9 -60766584.835 8
  22251527.613    22251531.079    74348566.127 9 -83786045.658 8
  24118311.591    24118313.479    15081124.625 9 -39536406.495 9
 86  6 11  4 48 35.0800000  0  3G12G13G 7
  21912803.856    21912807.125    47167144.402 8 -60754283.560 9
  22253357.169    22253360.155    74358180.309 9 -83778554.082 9
  24118041.955    24118045.164    15079708.925 9 -39537509.629 9
 86  6 11  4 48 41.0800000  0  3G12G13G 7
  21915812.263    21915815.260    47182948.426 9 -60741968.748 9
  22255186.957    22255190.076    74367796.034 9 -83771061.306 9
  24117776.731    24117778.788    15078316.071 9 -39538594.963 9
 86  6 11  4 48 47.0800000  0  3G12G13G 7
  21918822.080    21918825.292    47198769.857 9 -60729640.355 8
  22257017.839    22257021.323    74377413.469 9 -83763567.193 9
  24117515.703    24117517.452    15076944.284 9 -39539663.886 8
 86  6 11  4 48 53.0800000  0  3G12G13G 7
  21921835.839    21921839.845    47214608.628 9 -60717298.460 8
  22258847.756    22258851.787    74387032.545 8 -83756071.794 9
  24117258.720    24117260.952    15075593.330 9 -39540716.571 8
 86  6 11  4 48 59.0800000  0  3G12G13G 7
  21924853.462    21924856.902    47230464.843 9 -60704942.978 8
  22260678.632    22260681.729    74396653.272 9 -83748575.122 9
  24117005.802    24117008.388    15074266.585 9 -39541750.399 8
 86  6 11  4 49  5.0800000  0  3G12G13G 7
  21927874.047    21927877.916    47246338.320 9 -60692574.032 8
  22262509.872    22262513.009    74406275.582 9 -83741077.222 9
                  24116761.758                   -39542760.027 8
 86  6 11  4 49 11.0800000  0  3G12G13G 7
  21930897.994    21930901.935    47262229.038 9 -60680191.655 8
  22264341.960    22264344.245    74415899.483 9 -83733578.076 8
  24116519.264    24116521.543    15036542.490 9 -39543740.975 8
 86  6 11  4 49 17.0800000  0  3G12G13G 7
  21933924.925    21933929.209    47278136.990 9 -60667795.844 8
  22266172.692    22266176.677    74425524.864 9 -83726077.769 9
  24116286.264    24116289.662    15035320.984 9 -39544692.803 8
 86  6 11  4 49 23.0800000  0  3G12G13G 7
  21936955.948    21936959.438    47294062.094 9 -60655386.682 9
  22268004.437    22268008.182    74435151.820 9 -83718576.240 9
  24116060.894    24116063.463    15034133.643 9 -39545618.383 8
 86  6 11  4 49 29.0800000  0  3G12G13G 7
  21939989.353    21939993.302    47310004.321 9 -60642964.163 7
  22269837.087    22269840.868    74444780.380 9 -83711073.464 8
  24115840.722    24115843.570    15032974.957 9 -39546521.258 9
 86  6 11  4 49 35.0800000  0  3G12G13G 7
  21943026.415    21943028.925    47325963.596 9 -60630528.370 9
  22271670.084    22271672.480    74454410.468 9 -83703569.491 8
  24115624.181    24115626.964    15031841.427 9 -39547404.516 8
 86  6 11  4 49 41.0800000  0  3G12G13G 7
  21946067.104    21946069.672    47341939.983 9 -60618079.241 8
  22273502.587    22273505.688    74464042.078 9 -83696064.338 8
  24115414.015    24115416.533    15030730.662 9 -39548270.044 9
 86  6 11  4 49 47.0800000  0  3G12G13G 7
  21949109.732    21949112.629    47357933.420 9 -60605616.823 8
  22275335.580    22275338.227    74473675.161 9 -83688558.037 9
  24115206.753    24115208.642    15029640.756 9 -39549119.314 9
 86  6 11  4 49 53.0800000  0  3G12G13G 7
  21952156.352    21952159.750    47373943.976 9 -60593141.062 8
  22277169.267    22277172.000    74483309.745 9 -83681050.555 8
  24115003.223    24115005.108    15028571.657 9 -39549952.377 9
 86  6 11  4 49 59.0800000  0  3G12G13G 7
  21955206.464    21955209.346    47389971.570 8 -60580652.032 8
  22279002.886    22279005.472    74492945.839 9 -83673541.910 8
  24114804.111    24114807.001    15027526.975 9 -39550766.418 8
 86  6 11  4 50  5.0800000  0  3G12G13G 7
  21958259.759    21958263.278    47406016.254 9 -60568149.691 8
  22280837.618    22280839.063    74502583.494 9 -83666032.042 9
                  24114613.240                   -39551556.085 8
 86  6 11  4 50 11.0800000  0  3G12G13G 7
  21961316.281    21961320.359    47422077.966 9 -60555634.070 9
  22282671.320    22282674.292    74512222.748 9 -83658520.937 9
  24114425.096    24114426.480    14990074.144 9 -39552316.923 8
 86  6 11  4 50 17.0800000  0  3G12G13G 7
  21964376.245    21964379.006    47438156.632 9 -60543105.235 7
  22284506.148    22284509.142    74521863.603 9 -83651008.580 8
  24114246.528    24114249.114    14989135.061 9 -39553048.658 8
 86  6 11  4 50 23.0800000  0  3G12G13G 7
  21967438.956    21967442.933    47454252.273 8 -60530563.190 8
  22286340.908    22286342.929    74531506.040 9 -83643494.984 8
  24114075.225    24114076.252    14988229.647 9 -39553754.168 9
 86  6 11  4 50 29.0800000  0  3G12G13G 7
  21970504.965    21970508.735    47470364.775 9 -60518008.000 9
  22288175.798    22288178.580    74541150.087 9 -83635980.137 9
  24113908.266    24113909.682    14987353.101 9 -39554437.193 8
 86  6 11  4 50 35.0800000  0  3G12G13G 7
  21973573.993    21973578.056    47486494.209 8 -60505439.606 8
  22290011.177    22290014.493    74550795.763 9 -83628464.026 8
  24113746.872    24113747.688    14986501.726 9 -39555100.594 9
 86  6 11  4 50 41.0800000  0  3G12G13G 7
  21976646.585    21976650.655    47502640.585 8 -60492858.030 8
  22291847.154    22291850.126    74560443.016 9 -83620946.669 8
  24113588.755    24113591.174    14985673.085 9 -39555746.285 9
 86  6 11  4 50 47.0800000  0  3G12G13G 7
  21979722.889    21979726.323    47518803.861 8 -60480263.270 8
  22293682.991    22293685.612    74570091.893 9 -83613428.070 8
  24113435.075    24113437.361    14984865.315 9 -39556375.715 8
 86  6 11  4 50 53.0800000  0  3G12G13G 7
  21982802.092    21982805.382    47534984.011 9 -60467655.360 9
  22295519.368    22295522.101    74579742.332 9 -83605908.234 9
  24113284.771    24113287.014    14984078.495 9 -39556988.809 9
 86  6 11  4 50 59.0800000  0  3G12G13G 7
  21985884.141    21985887.067    47551181.005 9 -60455034.329 9
  22297357.223    22297358.879    74589394.321 9 -83598387.194 9
                  24113142.495                   -39557582.696 8
 86  6 11  4 51  5.0800000  0  3G12G13G 7
  21988968.874    21988972.443    47567394.812 8 -60442400.206 8
  22299193.425    22299196.852    74599047.849 9 -83590864.959 9
  24113047.668    24113003.710    14946847.157 9 -39558152.074 8
 86  6 11  4 51 11.0800000  0  3G12G13G 7
  21992057.914    21992061.569    47583625.362 9 -60429753.029 8
  22301030.768    22301034.273    74608702.895 9 -83583341.552 9
  24112868.556    24112872.029    14946153.701 9 -39558692.415 9
 86  6 11  4 51 17.0800000  0  3G12G13G 7
  21995149.858    21995153.141    47599872.668 9 -60417092.799 9
  22302868.877    22302870.865    74618359.535 9 -83575816.887 9
  24112742.553    24112747.121    14945497.354 9 -39559203.850 9
 86  6 11  4 51 23.0800000  0  3G12G13G 7
  21998245.087    21998247.712    47616136.613 9 -60404419.596 8
  22304706.170    22304708.956    74628017.648 9 -83568291.076 9
  24112624.012    24112628.262    14944873.926 9 -39559689.241 9
 86  6 11  4 51 29.0800000  0  3G12G13G 7
  22001342.655    22001346.468    47632417.226 9 -60391733.407 9
  22306545.191    22306546.414    74637677.287 8 -83560764.079 9
  24112511.019    24112515.444    14944279.730 9 -39560152.251 8
 86  6 11  4 51 35.0800000  0  3G12G13G 7
  22004444.158    22004447.835    47648714.381 9 -60379034.322 9
  22308381.919    22308385.632    74647338.470 8 -83553235.885 9
  24112403.418    24112406.981    14943710.520 9 -39560595.792 8
 86  6 11  4 51 41.0800000  0  3G12G13G 7
  22007548.409    22007550.976    47665028.110 9 -60366322.329 9
  22310221.426    22310224.384    74657001.107 9 -83545706.545 9
  24112299.204    24112302.187    14943163.925 9 -39561021.702 9
 86  6 11  4 51 47.0800000  0  3G12G13G 7
  22010655.263    22010659.183    47681358.485 9 -60353597.360 8
  22312060.462    22312063.631    74666665.299 9 -83538176.005 9
  24112199.583    24112201.880    14942637.966 9 -39561431.536 9
 86  6 11  4 51 53.0800000  0  3G12G13G 7
  22013766.769    22013770.087    47697705.482 9 -60340859.447 9
  22313900.198    22313903.303    74676331.004 9 -83530644.285 8
  24112103.343    24112105.089    14942132.868 9 -39561825.111 8
 86  6 11  4 51 59.0800000  0  3G12G13G 7
  22016881.100    22016883.260    47714069.034 9 -60328108.633 8
  22315740.088    22315742.531    74685998.360 9 -83523111.276 9
                  24112014.966                   -39562199.306 8
 86  6 11  4 52  5.0800000  0  3G12G13G 7
  22019997.492    22020001.361    47730449.028 9 -60315344.992 8
  22317579.835    22317582.235    74695667.215 9 -83515577.106 9
  24111921.481    24111928.835    14905182.996 9 -39562548.767 8
 86  6 11  4 52 11.0800000  0  3G12G13G 7
  22023117.776    22023122.175    47746845.487 9 -60302568.540 8
  22319419.618    22319422.451    74705337.629 9 -83508041.719 8
  24111848.110    24111850.850    14904771.563 9 -39562869.108 8
 86  6 11  4 52 17.0800000  0  3G12G13G 7
  22026241.193    22026244.984    47763258.389 9 -60289779.276 9
  22321260.592    22321263.000    74715009.560 9 -83500505.130 9
  24111777.827    24111780.403    14904397.903 9 -39563160.652 9
 86  6 11  4 52 23.0800000  0  3G12G13G 7
  22029367.144    22029370.055    47779687.743 9 -60276977.176 8
  22323100.919    22323102.661    74724683.032 9 -83492967.367 9
  24111712.348    24111714.938    14904057.038 9 -39563426.254 9
 86  6 11  4 52 29.0800000  0  3G12G13G 7
  22032496.979    22032500.834    47796133.564 9 -60264162.257 7
  22324942.290    22324944.046    74734358.116 9 -83485428.324 9
  24111654.228    24111656.252    14903744.780 9 -39563669.568 9
 86  6 11  4 52 35.0800000  0  3G12G13G 7
  22035628.732    22035633.109    47812595.887 9 -60251334.472 9
  22326783.901    22326785.529    74744034.711 9 -83477888.120 9
  24111599.742    24111601.366    14903457.565 9 -39563893.357 9
 86  6 11  4 52 41.0800000  0  3G12G13G 7
  22038765.549    22038768.697    47829074.611 9 -60238493.915 9
  22328625.330    22328628.052    74753712.810 9 -83470346.729 9
  24111548.751    24111551.016    14903192.993 9 -39564099.516 9
 86  6 11  4 52 47.0800000  0  3G12G13G 7
  22041904.471    22041907.225    47845569.644 9 -60225640.641 9
  22330467.749    22330469.816    74763392.479 9 -83462804.139 9
  24111502.046    24111504.314    14902949.145 9 -39564289.519 8
 86  6 11  4 52 53.0800000  0  3G12G13G 7
  22045046.190    22045050.525    47862080.936 9 -60212774.707 9
  22332309.689    22332312.261    74773073.656 9 -83455260.353 9
  24111459.526    24111462.520    14902726.359 9 -39564463.118 9
 86  6 11  4 52 59.0800000  0  3G12G13G 7
  22048191.208    22048194.920    47878608.546 9 -60199896.052 9
  22334152.613    22334154.591    74782756.410 9 -83447715.356 8
                  24111424.415                   -39564617.289 8
 86  6 11  4 53  5.0800000  0  3G12G13G 7
  22051339.294    22051342.706    47895152.445 8 -60187004.701 9
  22335995.047    22335997.314    74792440.645 9 -83440169.189 9
  24111444.859    24111393.561    14866051.446 9 -39564746.404 8
 86  6 11  4 53 11.0800000  0  3G12G13G 7
  22054490.644    22054494.305    47911712.568 9 -60174100.718 8
  22337838.339    22337840.088    74802126.347 9 -83432621.879 8
  24111365.601    24111369.360    14865922.960 9 -39564846.405 9
 86  6 11  4 53 17.0800000  0  3G12G13G 7
  22057644.675    22057649.003    47928288.904 9 -60161184.102 9
  22339682.275    22339683.720    74811813.573 9 -83425073.388 9
  24111348.419    24111351.517    14865831.588 9 -39564917.613 9
 86  6 11  4 53 23.0800000  0  3G12G13G 7
  22060802.127    22060805.961    47944881.346 9 -60148254.926 8
  22341525.603    22341527.585    74821502.282 9 -83417523.741 9
  24111336.632    24111340.756    14865772.704 9 -39564963.100 9
 86  6 11  4 53 29.0800000  0  3G12G13G 7
  22063962.871    22063966.125    47961489.919 9 -60135313.181 9
  22343369.797    22343371.510    74831192.561 9 -83409972.868 8
  24111331.906    24111334.696    14865742.801 9 -39564986.400 9
 86  6 11  4 53 35.0800000  0  3G12G13G 7
  22067126.840    22067129.658    47978114.606 9 -60122358.881 9
  22345213.662    22345216.659    74840884.442 9 -83402420.754 9
  24111330.772    24111334.664    14865737.747 9 -39564990.334 9
 86  6 11  4 53 41.0800000  0  3G12G13G 7
  22070292.964    22070296.225    47994755.395 9 -60109392.032 8
  22347058.438    22347059.962    74850577.864 8 -83394867.438 9
  24111334.263    24111337.443    14865755.062 9 -39564976.843 9
 86  6 11  4 53 47.0800000  0  3G12G13G 7
  22073463.559    22073466.320    48011412.261 9 -60096412.666 7
  22348903.476    22348905.222    74860272.829 9 -83387312.917 8
  24111341.428    24111344.634    14865793.068 9 -39564947.225 8
 86  6 11  4 53 53.0800000  0  3G12G13G 7
  22076635.664    22076639.726    48028085.132 9 -60083420.822 8
  22350748.300    22350750.878    74869969.358 9 -83379757.172 8
  24111353.287    24111355.727    14865852.072 9 -39564901.244 9
 86  6 11  4 53 59.0800000  0  3G12G13G 7
  22079812.004    22079815.258    48044774.078 9 -60070416.447 9
  22352593.542    22352595.999    74879667.415 9 -83372200.236 9
                  24111371.517                   -39564835.513 9
 86  6 11  4 54  5.0800000  0  3G12G13G 7
  22082990.111    22082993.358    48061479.023 9 -60057399.606 8
  22354438.683    22354442.106    74889366.996 9 -83364642.120 9
  24111357.598    24111394.337    14829461.112 9 -39564744.662 9
 86  6 11  4 54 11.0800000  0  3G12G13G 7
  22086171.574    22086175.408    48078199.936 8 -60044370.325 8
  22356285.313    22356288.246    74899068.082 9 -83357082.831 8
  24111420.930    24111423.520    14829615.117 9 -39564624.575 9
 86  6 11  4 54 17.0800000  0  3G12G13G 7
  22089356.357    22089359.690    48094936.814 9 -60031328.597 8
  22358131.410    22358134.679    74908770.655 9 -83349522.376 9
  24111457.344    24111459.397    14829806.013 9 -39564475.817 8
 86  6 11  4 54 23.0800000  0  3G12G13G 7
  22092545.568    22092549.337    48111689.594 8 -60018274.476 8
  22359978.176    22359981.595    74918474.785 9 -83341960.711 9
  24111498.926    24111502.178    14830029.740 9 -39564301.476 9
 86  6 11  4 54 29.0800000  0  3G12G13G 7
  22095735.910    22095739.872    48128458.343 9 -60005207.936 9
  22361825.042    22361828.036    74928180.564 9 -83334397.754 9
  24111547.445    24111549.312    14830281.732 9 -39564105.112 9
 86  6 11  4 54 35.0800000  0  3G12G13G 7
  22098930.379    22098934.514    48145242.980 9 -59992128.996 9
  22363672.197    22363674.397    74937887.859 8 -83326833.626 8
  24111599.892    24111602.310    14830558.486 9 -39563889.458 8
 86  6 11  4 54 41.0800000  0  3G12G13G 7
  22102127.869    22102130.679    48162043.512 9 -59979037.676 8
  22365520.709    22365522.723    74947596.663 8 -83319268.321 9
  24111657.171    24111659.168    14830857.626 9 -39563656.365 8
 86  6 11  4 54 47.0800000  0  3G12G13G 7
  22105327.805    22105330.315    48178859.837 9 -59965934.049 9
  22367367.239    22367370.633    74957307.017 9 -83311701.816 8
  24111718.300    24111719.052    14831177.403 9 -39563407.179 9
 86  6 11  4 54 53.0800000  0  3G12G13G 7
  22108531.082    22108533.621    48195691.948 9 -59952818.120 9
  22369215.346    22369218.501    74967018.862 9 -83304134.130 9
  24111782.008    24111784.037    14831518.281 9 -39563141.552 8
 86  6 11  4 54 59.0800000  0  3G12G13G 7
  22111736.033    22111739.617    48212539.774 9 -59939689.936 8
  22371063.071    22371066.422    74976732.300 9 -83296565.216 9
                  24111854.502                   -39562856.130 9
 86  6 11  4 55  5.0800000  0  3G12G13G 7
  22114945.113    22114949.026    48229403.265 9 -59926549.560 9
  22372911.686    22372915.721    74986447.257 8 -83288995.118 9
                  24111930.184                   -39562545.340 8
 86  6 11  4 55 11.0800000  0  3G12G13G 7
  22118156.997    22118161.489    48246282.503 9 -59913396.911 9
  22374761.782    22374764.071    74996163.687 9 -83281423.870 9
  24112010.007    24112013.968    14795835.219 9 -39562205.356 8
 86  6 11  4 55 17.0800000  0  3G12G13G 7
  22121372.480    22121375.827    48263177.379 9 -59900232.083 8
  22376611.757    22376613.466    75005881.559 8 -83273851.500 9
  24112099.325    24112104.359    14796308.129 9 -39561836.866 8
 86  6 11  4 55 23.0800000  0  3G12G13G 7
  22124590.345    22124593.800    48280087.825 9 -59887055.115 8
  22378460.365    22378462.958    75015600.898 8 -83266277.996 9
  24112196.327    24112199.018    14796814.098 9 -39561442.980 9
 86  6 11  4 55 29.0800000  0  3G12G13G 7
  22127810.500    22127814.807    48297013.874 9 -59873865.981 8
  22380310.107    22380312.764    75025321.589 8 -83258703.422 9
  24112298.127    24112301.325    14797347.558 9 -39561027.290 9
 86  6 11  4 55 35.0800000  0  3G12G13G 7
  22131035.592    22131038.517    48313955.488 9 -59860664.731 8
  22382160.772    22382164.095    75035043.797 9 -83251127.680 9
  24112404.673    24112407.406    14797905.585 9 -39560592.476 8
 86  6 11  4 55 41.0800000  0  3G12G13G 7
  22134261.921    22134266.492    48330912.711 9 -59847451.310 9
  22384010.514    22384014.209    75044767.573 8 -83243550.714 8
  24112514.678    24112518.173    14798485.800 9 -39560140.350 9
 86  6 11  4 55 47.0800000  0  3G12G13G 7
  22137491.134    22137494.839    48347885.508 9 -59834225.762 8
  22385861.920    22385864.738    75054492.796 9 -83235972.611 9
  24112629.270    24112632.479    14799086.641 9 -39559672.158 9
 86  6 11  4 55 53.0800000  0  3G12G13G 7
  22140724.410    22140728.709    48364873.826 9 -59820988.109 9
  22387712.653    22387715.321    75064219.581 9 -83228393.298 9
  24112746.995    24112751.052    14799708.690 9 -39559187.451 9
 86  6 11  4 55 59.0800000  0  3G12G13G 7
  22143960.413    22143963.889    48381877.583 9 -59807738.432 9
  22389564.069    22389566.394    75073947.874 9 -83220812.805 8
                  24112874.165                   -39558682.712 9
 86  6 11  4 56  5.0800000  0  3G12G13G 7
  22147198.662    22147202.510    48398896.761 9 -59794476.743 9
  22391415.264    22391418.823    75083677.730 9 -83213231.102 9
  24112959.841    24113003.756    14763874.123 9 -39558152.525 9
 86  6 11  4 56 11.0800000  0  3G12G13G 7
  22150439.508    22150444.672    48415931.373 9 -59781203.016 9
  22393266.390    22393269.044    75093409.069 8 -83205648.237 8
  24113136.688    24113140.892    14764591.843 9 -39557593.045 9
 86  6 11  4 56 17.0800000  0  3G12G13G 7
  22153685.018    22153687.636    48432981.389 9 -59767917.283 9
  22395119.187    22395122.102    75103141.879 9 -83198064.229 9
  24113280.775    24113283.103    14765346.319 9 -39557005.126 8
 86  6 11  4 56 23.0800000  0  3G12G13G 7
  22156932.118    22156936.123    48450046.779 9 -59754619.582 8
  22396970.936    22396974.205    75112876.150 8 -83190479.076 9
  24113430.052    24113433.028    14766133.219 9 -39556391.954 8
 86  6 11  4 56 29.0800000  0  3G12G13G 7
  22160182.336    22160186.986    48467127.598 9 -59741309.859 9
  22398823.558    22398826.970    75122611.968 9 -83182892.721 9
  24113585.639    24113588.368    14766948.060 9 -39555757.017 8
 86  6 11  4 56 35.0800000  0  3G12G13G 7
  22163435.581    22163440.052    48484223.765 9 -59727988.178 9
  22400677.872    22400680.011    75132349.325 9 -83175305.165 9
  24113744.521    24113747.250    14767787.384 9 -39555102.990 9
 86  6 11  4 56 41.0800000  0  3G12G13G 7
  22166692.432    22166696.173    48501335.274 9 -59714654.535 9
  22402529.653    22402532.862    75142088.238 8 -83167716.390 9
  24113909.141    24113911.452    14768648.934 9 -39554431.654 9
 86  6 11  4 56 47.0800000  0  3G12G13G 7
  22169951.129    22169955.006    48518462.162 9 -59701308.909 8
  22404383.559    22404386.224    75151828.741 9 -83160126.390 8
  24114077.124    24114079.946    14769531.081 9 -39553744.263 8
 86  6 11  4 56 53.0800000  0  3G12G13G 7
  22173213.739    22173216.557    48535604.271 9 -59687951.417 9
  22406237.501    22406241.024    75161570.758 8 -83152535.197 9
  24114248.458    24114251.828    14770434.511 9 -39553040.292 9
 86  6 11  4 56 59.0800000  0  3G12G13G 7
  22176479.075    22176482.773    48552761.622 9 -59674582.068 9
  22408091.836    22408094.845    75171314.350 9 -83144942.797 8
                  24114427.187                   -39552316.091 8
 86  6 11  4 57  5.0800000  0  3G12G13G 7
  22179746.379    22179750.091    48569934.251 9 -59661200.793 9
  22409946.508    22409949.098    75181059.455 8 -83137349.194 9
  24114516.459    24114611.593    14734881.152 9 -39551566.232 9
 86  6 11  4 57 11.0800000  0  3G12G13G 7
  22183017.174    22183021.387    48587122.095 9 -59647807.681 9
  22411800.246    22411804.281    75190806.064 8 -83129754.438 9
  24114798.529    24114802.160    14735881.253 9 -39550786.992 8
 86  6 11  4 57 17.0800000  0  3G12G13G 7
  22186291.010    22186293.856    48604325.108 9 -59634402.721 8
  22413655.927    22413658.180    75200554.150 9 -83122158.520 8
  24114996.543    24114999.079    14736917.536 9 -39549979.484 8
 86  6 11  4 57 23.0800000  0  3G12G13G 7
  22189566.477    22189570.690    48621543.299 9 -59620985.956 9
  22415510.956    22415513.646    75210303.756 9 -83114561.420 9
  24115199.236    24115202.488    14737986.078 9 -39549146.854 9
 86  6 11  4 57 29.0800000  0  3G12G13G 7
  22192846.766    22192850.221    48638776.507 9 -59607557.489 9
  22417366.951    22417369.051    75220054.924 8 -83106963.115 9
  24115408.404    24115410.547    14739082.363 9 -39548292.610 9
 86  6 11  4 57 35.0800000  0  3G12G13G 7
  22196127.542    22196132.499    48656024.771 9 -59594117.275 8
  22419223.168    22419225.021    75229807.555 8 -83099363.647 9
  24115621.619    24115624.237    14740202.861 9 -39547419.484 9
 86  6 11  4 57 41.0800000  0  3G12G13G 7
  22199413.877    22199417.811    48673288.084 9 -59580665.352 9
  22421079.374    22421081.588    75239561.727 9 -83091762.997 9
  24115839.526    24115841.057    14741345.353 9 -39546529.240 8
 86  6 11  4 57 47.0800000  0  3G12G13G 7
  22202701.242    22202704.962    48690566.355 9 -59567201.767 9
  22422935.506    22422937.669    75249317.422 8 -83084161.154 8
  24116060.521    24116063.343    14742508.426 9 -39545622.943 9
 86  6 11  4 57 53.0800000  0  3G12G13G 7
  22205991.820    22205996.541    48707859.533 9 -59553726.556 8
  22424791.848    22424793.876    75259074.691 8 -83076558.087 9
  24116285.840    24116288.055    14743692.665 9 -39544700.153 9
 86  6 11  4 57 59.0800000  0  3G12G13G 7
  22209286.475    22209289.937    48725167.567 8 -59540239.780 9
  22426649.446    22426651.452    75268833.289 9 -83068953.984 9
                  24116517.946                   -39543756.911 8
 86  6 11  4 58  5.0800000  0  3G12G13G 7
  22212582.454    22212586.431    48742490.535 9 -59526741.361 9
  22428506.421    22428508.728    75278593.299 9 -83061348.773 9
  24116696.146    24116754.742    14708414.397 9 -39542787.816 8
 86  6 11  4 58 11.0800000  0  3G12G13G 7
  22215882.390    22215885.237    48759828.454 9 -59513231.295 9
  22430364.187    22430366.201    75288354.934 8 -83053742.296 9
  24116996.650    24116999.132    14709695.674 9 -39541789.361 8
 86  6 11  4 58 17.0800000  0  3G12G13G 7
  22219184.601    22219188.314    48777181.267 9 -59499709.622 9
  22432221.220    22432224.618    75298118.009 9 -83046134.704 9
  24117246.835    24117249.529    14711012.735 9 -39540762.691 8
 86  6 11  4 58 23.0800000  0  3G12G13G 7
  22222489.252    22222492.242    48794548.993 9 -59486176.332 8
  22434079.125    22434083.156    75307882.562 9 -83038525.958 9
  24117503.349    24117506.189    14712362.321 9 -39539711.063 9
 86  6 11  4 58 29.0800000  0  3G12G13G 7
  22225796.478    22225800.820    48811931.535 9 -59472631.497 9
  22435938.018    22435941.094    75317648.601 9 -83030916.060 8
  24117765.236    24117767.919    14713739.465 9 -39538637.965 9
 86  6 11  4 58 35.0800000  0  3G12G13G 7
  22229106.846    22229110.279    48829328.867 9 -59459075.129 7
  22437797.215    22437799.783    75327416.247 8 -83023304.901 9
  24118032.968    24118035.615    14715140.873 8 -39537545.964 9
 86  6 11  4 58 41.0800000  0  3G12G13G 7
  22232421.112    22232424.252    48846741.012 9 -59445507.235 8
  22439655.482    22439659.173    75337185.479 8 -83015692.505 9
  24118302.152    24118305.987    14716564.101 9 -39536436.950 9
 86  6 11  4 58 47.0800000  0  3G12G13G 7
  22235737.053    22235740.765    48864167.934 9 -59431927.800 8
  22441515.022    22441518.306    75346956.355 8 -83008078.836 9
  24118577.697    24118580.953    14718007.811 9 -39535311.981 9
 86  6 11  4 58 53.0800000  0  3G12G13G 7
  22239055.683    22239059.632    48881609.593 8 -59418336.911 8
  22443375.117    22443377.091    75356728.633 8 -83000464.068 9
  24118857.159    24118859.842    14719472.825 9 -39534170.410 8
 86  6 11  4 58 59.0800000  0  3G12G13G 7
  22242378.099    22242381.017    48899065.928 8 -59404734.571 8
  22445234.078    22445237.376    75366502.447 8 -82992848.103 9
                  24119144.152                   -39533008.300 9
 86  6 11  4 59  5.0800000  0  3G12G13G 7
  22245702.446    22245705.851    48916536.988 9 -59391120.755 9
  22447095.131    22447097.410    75376277.744 9 -82985230.991 9
  24119345.629    24119433.702    14684473.594 9 -39531820.123 8
 86  6 11  4 59 11.0800000  0  3G12G13G 7
  22249029.319    22249033.654    48934022.659 8 -59377495.556 8
  22448955.369    22448957.927    75386054.595 8 -82977612.656 8
  24119728.636    24119731.827    14686036.313 9 -39530602.381 9
 86  6 11  4 59 17.0800000  0  3G12G13G 7
  22252359.812    22252362.924    48951522.956 9 -59363858.976 9
  22450815.979    22450818.622    75395832.962 9 -82969993.147 9
  24120031.665    24120035.643    14687635.438 9 -39529356.691 9
 86  6 11  4 59 23.0800000  0  3G12G13G 7
  22255692.945    22255696.372    48969037.807 8 -59350211.042 8
  22452676.965    22452679.486    75405612.807 8 -82962372.487 9
  24120343.419    24120345.856    14689266.014 9 -39528086.121 9
 86  6 11  4 59 29.0800000  0  3G12G13G 7
  22259028.432    22259032.216    48986567.269 9 -59336551.722 8
  22454538.043    22454540.890    75415394.158 9 -82954750.651 8
  24120658.297    24120661.624    14690923.928 9 -39526794.232 9
 86  6 11  4 59 35.0800000  0  3G12G13G 7
  22262367.282    22262371.688    49004111.259 9 -59322881.082 8
  22456401.039    22456403.103    75425177.001 7 -82947127.651 9
  24120978.840    24120982.027    14692605.831 9 -39525483.650 8
 86  6 11  4 59 41.0800000  0  3G12G13G 7
  22265709.051    22265712.262    49021669.721 9 -59309199.159 9
  22458262.071    22458264.786    75434961.327 8 -82939503.496 9
  24121303.423    24121305.676    14694309.501 9 -39524156.121 9
 86  6 11  4 59 47.0800000  0  3G12G13G 7
  22269053.460    22269056.163    49039242.598 9 -59295506.021 9
  22460124.123    22460127.056    75444747.214 8 -82931878.132 9
  24121631.007    24121633.271    14696033.421 9 -39522812.808 8
 86  6 11  4 59 53.0800000  0  3G12G13G 7
  22272399.528    22272403.849    49056829.907 9 -59281801.624 8
  22461986.354    22461989.369    75454534.519 9 -82924251.654 9
  24121962.962    24121965.423    14697778.656 9 -39521452.883 9
